PROFILE

 METAR AND TAF INFORMATION
ADDS - METARS form results

(1212 UTC 26 March 2019)
http://aviationweather.gov/metar/data/
 
TNCM 261200Z 11012KT 070V150 9999 SCT018 26/21 Q1016 A3001 NOSIG RMK SHRA NW
TNCM 261135Z 2612/2712 12009KT P6SM VCSH SCT018 SCT040 FM261400 13015KT P6SM FEW018 

 AIRPORT MAP

 RUNWAY INFORMATION
Runway 10 Runway length 7546 ft Runway width 150 ft
Runway elevation 13 ft Runway displaced threshold 0 ft Runway heading 96
Runway 28 Runway length 7546 ft Runway width 150 ft
Runway elevation 9 ft Runway displaced threshold 328 ft Runway heading 276

 AIRPORT FREQUENCIES
Type APP Name JULIANA AP Frequency 128.95 MHZ
Type TWR Name JULIANA TW Frequency 118.7 MHZ

 AIRPORT NEAR NAVIGATION AIDS
Type NDB Name St.mMarten Frequency 284 KHZ
Type VOR-DME Name St.mMarten Frequency 113000 KHZ